This is the latest recevied weather packets stored in our database for station/object FREPRT-WX. If no packets are shown the sender has not sent any weather packets the latest 10 day(s).
| Time | Temp. | Humidity | Pressure | Rain* | Wind** | Luminosity | Snow |
|---|---|---|---|---|---|---|---|
| 1777846538 | 13.33° C | 56% | 981.2 hPa | 0 mm | - | - | - |
| 1777845676 | 13.89° C | 56% | 981.2 hPa | 0 mm | - | - | - |
| 1777844738 | 12.78° C | 52% | 981.6 hPa | 0 mm | - | - | - |
| 1777843856 | 13.33° C | 51% | 981.5 hPa | 0 mm | - | - | - |
| 1777842938 | 13.33° C | 51% | 981.5 hPa | 0 mm | - | - | - |
| 1777842066 | 14.44° C | 51% | 981.5 hPa | 0 mm | - | - | - |
| 1777841138 | 13.89° C | 48% | 982.3 hPa | 0 mm | - | - | - |
| 1777840257 | 14.44° C | 49% | 982.1 hPa | 0 mm | - | - | - |
| 1777839338 | 14.44° C | 49% | 982 hPa | 0 mm | - | - | - |
| 1777838467 | 14.44° C | 49% | 982 hPa | 0 mm | - | - | - |
| 1777837538 | 14.44° C | 51% | 982.4 hPa | 0 mm | - | - | - |
| 1777836660 | 14.44° C | 51% | 982.4 hPa | 0 mm | - | - | - |
| 1777835739 | 14.44° C | 51% | 982.4 hPa | 0 mm | - | - | - |
| 1777834870 | 14.44° C | 51% | 982.4 hPa | 0 mm | - | - | - |
| 1777833939 | 15° C | 46% | 983.2 hPa | 0 mm | - | - | - |
| 1777833347 | 15° C | 46% | 983.2 hPa | 0 mm | - | - | - |
| 1777832138 | 15° C | 48% | 983.5 hPa | 0 mm | - | - | - |
| 1777831270 | 15° C | 48% | 983.5 hPa | 0 mm | - | - | - |
| 1777830337 | 14.44° C | 46% | 983.9 hPa | 0 mm | - | - | - |
| 1777829457 | 14.44° C | 45% | 983.2 hPa | 0 mm | - | - | - |
| 1777827666 | 14.44° C | 45% | 983.2 hPa | 0 mm | - | - | - |
| 1777826738 | 13.89° C | 49% | 983.7 hPa | 0 mm | - | - | - |
| 1777825854 | 13.33° C | 51% | 982.9 hPa | 0 mm | - | - | - |
| 1777824937 | 13.33° C | 51% | 982.9 hPa | 0 mm | - | - | - |
| 1777824074 | 12.78° C | 51% | 982.9 hPa | 0 mm | - | - | - |
* Rain latest hour (hover to see other rain measurements)
** Current wind speed in m/s (hover to see current wind gust speed)